Simultaneous Nadir Overpasses (SNOs) Predictions

Prediction of SNOs between GOES-17 and METOP-A Satellite Orbit:

Table of predicted SNOs for the next 14.0 days since TLE Epoch: 2/11/2022
Index Date Time (GOES-17) GOES-17 Lat,Lon METOP-A Lat,Lon Distance(km) Time Diff (sec)
1 02/13/2022 05:07:59 -0.00,-137.19 0.27,-135.81 156.45 80
2 02/13/2022 17:26:17 0.01,-137.20 0.54,-139.57 270.83 80
3 02/16/2022 05:09:40 -0.02,-137.17 0.24,-136.08 124.13 80
4 02/16/2022 17:25:27 0.02,-137.17 0.64,-139.87 308.09 80
5 02/19/2022 05:11:18 -0.02,-137.13 0.18,-136.34 90.93 80
6 02/19/2022 17:27:16 0.02,-137.13 0.70,-140.18 346.53 80
7 02/22/2022 05:12:55 -0.02,-137.09 0.08,-136.58 56.84 80
8 02/22/2022 17:29:05 0.02,-137.08 0.77,-140.47 386.25 80
9 02/24/2022 17:00:42 0.01,-137.04 -0.91,-132.87 475.35 80
10 02/25/2022 05:17:11 -0.01,-137.02 0.00,-136.83 21.19 80
11 02/25/2022 17:30:52 0.01,-137.01 0.85,-140.77 428.04 80
